IZ3LCH-13 Weather Reports


Display with metric or nautical units.
time (UTC)temp
F
wind
direction
speed
MPH
gust
MPH
rain 1hr
in
rain 24hr
in
rain mn
in
humidity
%
barometer
mb
20260507115003 71 210 7.0 13.0 0.00 0.00 0.00 54 1012.0
20260507114503 71 238 7.0 14.0 0.00 0.00 0.00 55 1012.2
20260507114003 71 238 6.0 14.0 0.00 0.00 0.00 54 1012.1
20260507113503 71 213 6.0 14.0 0.00 0.00 0.00 56 1012.1
20260507113004 70 205 6.0 14.0 0.00 0.00 0.00 55 1012.2
20260507112503 70 206 6.0 12.0 0.00 0.00 0.00 54 1012.4
20260507112003 70 205 5.0 12.0 0.00 0.00 0.00 55 1012.6
20260507111504 70 221 5.0 12.0 0.00 0.00 0.00 52 1012.4
20260507111003 71 223 6.0 12.0 0.00 0.00 0.00 52 1012.3
20260507110503 71 227 6.0 15.0 0.00 0.00 0.00 55 1012.4
20260507110003 70 228 6.0 15.0 0.00 0.00 0.00 54 1012.4
20260507105503 70 219 4.0 13.0 0.00 0.00 0.00 57 1012.6
20260507105003 69 204 4.0 15.0 0.00 0.00 0.00 57 1012.8
20260507104504 69 203 5.0 15.0 0.00 0.00 0.00 54 1012.7
20260507104003 69 214 7.0 15.0 0.00 0.00 0.00 56 1012.8
20260507103503 69 237 7.0 16.0 0.00 0.00 0.00 54 1012.9
20260507102503 68 221 6.0 14.0 0.00 0.00 0.00 57 1013.1
20260507102003 68 220 7.0 19.0 0.00 0.00 0.00 58 1012.9
20260507101503 68 217 8.0 19.0 0.00 0.00 0.00 55 1013.1
20260507101003 68 215 8.0 16.0 0.00 0.00 0.00 58 1013.1
20260507100503 68 227 9.0 17.0 0.00 0.00 0.00 59 1013.0
20260507100003 68 222 9.0 17.0 0.00 0.00 0.00 60 1013.0
20260507095503 68 203 7.0 17.0 0.00 0.00 0.00 62 1013.0
20260507095003 68 207 6.0 13.0 0.00 0.00 0.00 60 1013.1
20260507094503 68 208 6.0 13.0 0.00 0.00 0.00 61 1013.2
20260507094003 68 199 5.0 12.0 0.00 0.00 0.00 64 1012.8
20260507093503 68 201 5.0 12.0 0.00 0.00 0.00 63 1013.0
20260507093003 68 209 5.0 9.0 0.00 0.00 0.00 62 1013.2
20260507092503 68 223 5.0 12.0 0.00 0.00 0.00 63 1012.9
20260507092003 67 217 6.0 15.0 0.00 0.00 0.00 61 1012.9
20260507091503 68 228 5.0 15.0 0.00 0.00 0.00 60 1012.9
20260507091003 68 247 5.0 9.0 0.00 0.00 0.00 62 1012.8
20260507090503 67 230 6.0 15.0 0.00 0.00 0.00 62 1012.9
20260507090004 67 222 7.0 15.0 0.00 0.00 0.00 61 1012.7
20260507085503 66 216 5.0 14.0 0.00 0.00 0.00 66 1013.0
20260507085003 66 191 4.0 10.0 0.00 0.00 0.00 70 1013.0
20260507084503 66 188 4.0 10.0 0.00 0.00 0.00 70 1013.0
20260507084003 65 181 4.0 10.0 0.00 0.00 0.00 72 1013.0
20260507083503 65 183 5.0 10.0 0.00 0.00 0.00 76 1013.0
20260507083003 64 192 5.0 11.0 0.00 0.00 0.00 76 1012.9
20260507082503 64 199 5.0 11.0 0.00 0.00 0.00 78 1012.8
20260507082003 64 197 4.0 10.0 0.00 0.00 0.00 77 1013.1
20260507081503 64 182 4.0 8.0 0.00 0.00 0.00 78 1013.0
20260507081003 64 174 4.0 8.0 0.00 0.00 0.00 79 1012.8
20260507080503 64 171 4.0 9.0 0.00 0.00 0.00 79 1012.7
20260507075503 64 172 4.0 9.0 0.00 0.00 0.00 80 1012.6
20260507075003 64 167 4.0 9.0 0.00 0.00 0.00 81 1012.9
20260507074503 63 182 4.0 9.0 0.00 0.00 0.00 82 1012.8
20260507074003 63 204 4.0 8.0 0.00 0.00 0.00 83 1013.0
20260507073503 63 207 3.0 9.0 0.00 0.00 0.00 82 1012.8
20260507073003 63 212 3.0 9.0 0.00 0.00 0.00 83 1012.8
20260507072503 62 193 3.0 6.0 0.00 0.00 0.00 83 1012.6
20260507072003 62 178 2.0 6.0 0.00 0.00 0.00 85 1012.6
20260507071503 62 176 2.0 4.0 0.00 0.00 0.00 86 1012.6
20260507071003 61 169 2.0 4.0 0.00 0.00 0.00 86 1012.6
20260507070503 60 179 2.0 4.0 0.00 0.00 0.00 87 1012.3
20260507070006 60 192 3.0 4.0 0.00 0.00 0.00 87 1012.3
20260507065503 60 229 3.0 4.0 0.00 0.00 0.00 88 1012.3
20260507065003 60 218 2.0 4.0 0.00 0.00 0.00 88 1012.4
20260507064503 59 189 1.0 4.0 0.00 0.00 0.00 89 1012.5
20260507064003 59 212 1.0 4.0 0.00 0.00 0.00 89 1012.5
20260507063503 59 218 2.0 6.0 0.00 0.00 0.00 90 1012.3
20260507063003 58 68 1.0 6.0 0.00 0.00 0.00 91 1012.3
20260507062503 58 47 0.0 2.0 0.00 0.00 0.00 91 1012.1
20260507062003 58 47 0.0 2.0 0.00 0.00 0.00 91 1012.2
20260507061503 57 47 0.0 2.0 0.00 0.00 0.00 91 1012.2
20260507061003 57 47 0.0 2.0 0.00 0.00 0.00 91 1012.3
20260507060503 57 47 0.0 2.0 0.00 0.00 0.00 91 1012.5
20260507060003 57 47 0.0 2.0 0.00 0.00 0.00 91 1012.3
20260507055503 56 47 0.0 2.0 0.00 0.00 0.00 91 1012.2
20260507055003 56 47 0.0 2.0 0.00 0.00 0.00 91 1012.4
20260507054503 56 47 0.0 2.0 0.00 0.00 0.00 90 1012.2
20260507054003 56 47 0.0 2.0 0.00 0.00 0.00 90 1012.1
20260507053503 55 47 0.0 2.0 0.00 0.00 0.00 90 1012.0
20260507053004 55 47 0.0 2.0 0.00 0.00 0.00 90 1011.9
20260507052503 55 47 0.0 2.0 0.00 0.00 0.00 90 1011.8
20260507052003 55 47 0.0 2.0 0.00 0.00 0.00 90 1011.9
20260507051503 55 47 0.0 2.0 0.00 0.00 0.00 90 1011.8
20260507051003 54 47 0.0 2.0 0.00 0.00 0.00 90 1011.8
20260507050503 54 47 0.0 2.0 0.00 0.00 0.00 90 1011.7
20260507050003 54 47 0.0 2.0 0.00 0.00 0.00 90 1011.6
20260507045503 54 47 0.0 2.0 0.00 0.00 0.00 90 1011.7
20260507045003 54 47 0.0 2.0 0.00 0.00 0.00 90 1011.6
20260507044503 54 47 0.0 2.0 0.00 0.00 0.00 90 1011.5
20260507044003 54 47 0.0 2.0 0.00 0.00 0.00 90 1011.4
20260507043503 54 47 0.0 2.0 0.00 0.00 0.00 90 1011.4
20260507043003 54 47 0.0 2.0 0.00 0.00 0.00 90 1011.4
20260507042503 54 47 0.0 2.0 0.00 0.00 0.00 90 1011.4
20260507042003 54 47 0.0 2.0 0.00 0.00 0.00 90 1011.3
20260507041503 54 47 0.0 2.0 0.00 0.00 0.00 90 1011.3
20260507041003 54 47 0.0 2.0 0.00 0.00 0.00 90 1011.1
20260507040504 54 47 0.0 2.0 0.00 0.00 0.00 90 1011.1
20260507040003 54 47 0.0 2.0 0.00 0.00 0.00 90 1011.1
20260507035503 54 47 0.0 2.0 0.00 0.00 0.00 90 1011.1
20260507035003 53 47 0.0 2.0 0.00 0.00 0.00 90 1011.0
20260507034503 53 47 0.0 2.0 0.00 0.00 0.00 89 1011.1
20260507034003 53 47 0.0 2.0 0.00 0.00 0.00 89 1011.1
20260507033503 53 47 0.0 2.0 0.00 0.00 0.00 89 1010.9
20260507033003 54 47 0.0 2.0 0.00 0.00 0.00 89 1011.0
20260507032503 54 47 0.0 2.0 0.00 0.00 0.00 89 1010.9
20260507032003 54 47 0.0 2.0 0.00 0.01 0.00 89 1011.1
20260507031503 54 47 0.0 2.0 0.00 0.01 0.00 89 1011.0
20260507031003 54 47 0.0 2.0 0.00 0.01 0.00 89 1011.0
20260507030503 54 47 0.0 2.0 0.00 0.01 0.00 89 1010.8
20260507030003 54 47 0.0 2.0 0.00 0.01 0.00 89 1010.9
20260507025503 54 47 0.0 2.0 0.00 0.01 0.00 89 1011.0
20260507025003 53 47 0.0 2.0 0.00 0.01 0.00 89 1010.9
20260507024503 53 47 0.0 2.0 0.00 0.01 0.00 89 1010.8
20260507024003 53 47 0.0 2.0 0.00 0.01 0.00 89 1010.9
20260507023503 54 47 0.0 2.0 0.00 0.01 0.00 89 1010.9
20260507023003 54 47 0.0 2.0 0.00 0.01 0.00 89 1010.8
20260507022503 54 47 0.0 2.0 0.00 0.01 0.00 89 1010.9
20260507022003 54 47 0.0 2.0 0.00 0.01 0.00 89 1010.8
20260507021503 54 47 0.0 2.0 0.00 0.01 0.00 89 1010.8
20260507021003 54 47 0.0 2.0 0.00 0.01 0.00 89 1010.6
20260507020503 54 47 0.0 2.0 0.00 0.01 0.00 89 1010.7
20260507020003 54 47 0.0 2.0 0.00 0.01 0.00 89 1010.9
20260507015503 54 47 0.0 2.0 0.00 0.01 0.00 89 1010.6
20260507015003 55 47 0.0 2.0 0.00 0.01 0.00 89 1010.6
20260507014503 55 47 0.0 2.0 0.00 0.01 0.00 89 1010.5
20260507014003 55 47 0.0 2.0 0.00 0.01 0.00 89 1011.0
20260507013503 55 47 0.0 2.0 0.00 0.01 0.00 89 1011.0
20260507013003 55 47 0.0 2.0 0.00 0.01 0.00 89 1010.6
20260507012503 55 47 0.0 2.0 0.00 0.01 0.00 89 1010.5
20260507012003 55 47 0.0 2.0 0.00 0.01 0.00 89 1010.5
20260507011503 55 47 0.0 2.0 0.00 0.01 0.00 89 1010.5
20260507011003 56 47 0.0 2.0 0.00 0.01 0.00 89 1010.6
20260507010503 55 47 0.0 2.0 0.00 0.01 0.00 89 1010.6
20260507010003 55 47 0.0 2.0 0.00 0.01 0.00 89 1010.8
20260507005503 56 47 0.0 2.0 0.00 0.01 0.00 88 1010.4
20260507005003 56 47 0.0 2.0 0.00 0.01 0.00 88 1010.6
20260507004503 56 47 0.0 2.0 0.00 0.01 0.00 89 1010.7
20260507004003 56 47 0.0 2.0 0.00 0.01 0.00 89 1010.5
20260507003503 56 47 0.0 2.0 0.00 0.01 0.00 89 1010.8
20260507003003 56 47 0.0 2.0 0.00 0.01 0.00 88 1010.8
20260507002503 56 47 0.0 2.0 0.00 0.01 0.00 88 1010.6
20260507002003 56 47 0.0 2.0 0.00 0.01 0.00 88 1010.8
20260507001503 56 47 0.0 2.0 0.00 0.01 0.00 88 1010.5
20260507001003 56 47 0.0 2.0 0.00 0.01 0.00 88 1010.5
20260507000503 56 47 0.0 2.0 0.00 0.01 0.00 88 1010.7
20260507000003 56 47 0.0 2.0 0.00 0.01 0.00 88 1010.5
20260506235503 56 47 0.0 2.0 0.00 0.01 0.00 88 1010.7
20260506235003 56 47 0.0 2.0 0.00 0.01 0.00 88 1010.6
20260506234503 56 47 0.0 2.0 0.00 0.01 0.00 88 1010.3
20260506234003 56 47 0.0 2.0 0.00 0.01 0.00 88 1010.6
20260506233503 57 47 0.0 2.0 0.00 0.01 0.00 88 1010.6
20260506233003 57 47 0.0 2.0 0.00 0.01 0.00 88 1010.7
20260506232503 57 47 0.0 2.0 0.00 0.01 0.00 88 1010.8
20260506232003 57 47 0.0 2.0 0.00 0.01 0.00 88 1010.9
20260506231503 57 47 0.0 2.0 0.00 0.01 0.00 88 1010.8
20260506231003 57 47 0.0 2.0 0.00 0.01 0.00 88 1010.9
20260506230503 57 47 0.0 2.0 0.00 0.01 0.00 88 1010.6
20260506230003 57 47 0.0 2.0 0.00 0.01 0.00 88 1010.6
20260506225503 57 47 0.0 2.0 0.00 0.01 0.00 88 1010.6
20260506225003 57 47 0.0 2.0 0.00 0.01 0.00 88 1010.6
20260506224503 57 47 0.0 2.0 0.00 0.01 0.00 88 1010.6
20260506224003 57 47 0.0 2.0 0.00 0.01 0.00 88 1010.7
20260506223503 57 47 0.0 2.0 0.00 0.01 0.00 88 1010.6
20260506223003 57 47 0.0 2.0 0.00 0.01 0.00 88 1010.5
20260506222503 57 47 0.0 2.0 0.00 0.01 0.00 88 1010.4
20260506222003 57 47 0.0 2.0 0.00 0.01 0.00 88 1010.5
20260506221504 57 47 0.0 2.0 0.00 0.01 0.00 87 1010.5
20260506221003 57 47 0.0 2.0 0.00 0.01 0.00 87 1010.5
20260506220503 57 47 0.0 2.0 0.00 0.01 0.00 87 1010.6
20260506220003 58 47 0.0 2.0 0.00 0.01 0.00 87 1010.5
20260506215503 58 47 0.0 2.0 0.00 0.01 0.01 87 1010.6
20260506215003 58 47 0.0 2.0 0.00 0.01 0.01 87 1010.7
20260506214503 58 47 0.0 2.0 0.00 0.01 0.01 87 1010.5
20260506214003 58 47 0.0 2.0 0.00 0.01 0.01 87 1010.4
20260506213503 58 47 0.0 2.0 0.00 0.01 0.01 87 1010.4
20260506213003 58 47 0.0 2.0 0.00 0.01 0.01 87 1010.5
20260506212503 58 47 0.0 2.0 0.00 0.01 0.01 87 1010.5
20260506212003 58 47 0.0 2.0 0.00 0.01 0.01 87 1010.4
20260506211503 58 47 0.0 2.0 0.00 0.01 0.01 87 1010.6
20260506211003 58 47 0.0 2.0 0.00 0.01 0.01 87 1010.4
20260506210503 59 47 0.0 2.0 0.00 0.01 0.01 87 1010.3
20260506210003 59 47 0.0 2.0 0.00 0.01 0.01 87 1010.3
20260506205503 59 47 0.0 2.0 0.00 0.01 0.01 87 1010.4
20260506205003 59 47 0.0 2.0 0.00 0.01 0.01 87 1010.5
20260506204503 59 47 0.0 2.0 0.00 0.01 0.01 86 1010.0
20260506204003 59 47 0.0 2.0 0.00 0.01 0.01 86 1010.1
20260506203503 59 47 0.0 2.0 0.00 0.01 0.01 86 1010.1
20260506203003 59 47 0.0 2.0 0.00 0.01 0.01 86 1010.3
20260506202503 59 47 0.0 2.0 0.00 0.01 0.01 86 1010.2
20260506202003 60 47 0.0 2.0 0.00 0.01 0.01 86 1010.4
20260506201503 60 47 0.0 2.0 0.00 0.01 0.01 86 1010.1
20260506201003 60 47 0.0 2.0 0.00 0.01 0.01 86 1010.0
20260506200503 60 47 0.0 2.0 0.00 0.01 0.01 86 1010.0
20260506200003 60 47 0.0 2.0 0.00 0.01 0.01 85 1010.1
20260506195503 60 47 0.0 2.0 0.00 0.01 0.01 85 1010.2
20260506195003 60 47 0.0 2.0 0.00 0.01 0.01 85 1009.9
20260506194503 60 47 0.0 2.0 0.00 0.01 0.01 85 1009.9
20260506194003 60 47 0.0 2.0 0.00 0.01 0.01 85 1009.7
20260506193503 60 47 0.0 2.0 0.00 0.01 0.01 85 1009.4
20260506193003 60 47 0.0 2.0 0.00 0.01 0.01 85 1009.6
20260506192503 60 47 0.0 2.0 0.00 0.01 0.01 85 1009.5
20260506192003 61 47 0.0 2.0 0.00 0.01 0.01 85 1009.5
20260506191503 61 47 0.0 2.0 0.00 0.01 0.01 85 1009.5
20260506191003 61 47 0.0 2.0 0.00 0.01 0.01 85 1009.4
20260506190503 61 47 0.0 2.0 0.00 0.01 0.01 85 1009.3
20260506190004 61 47 0.0 2.0 0.00 0.01 0.01 85 1009.2
20260506185503 61 47 0.0 2.0 0.00 0.01 0.01 85 1009.3
20260506185003 61 47 0.0 2.0 0.00 0.01 0.01 84 1009.2
20260506184503 61 47 0.0 2.0 0.00 0.01 0.01 84 1009.2
20260506184003 61 47 0.0 2.0 0.00 0.01 0.01 84 1009.3
20260506183503 62 47 0.0 2.0 0.00 0.01 0.01 84 1009.1
20260506183003 62 47 0.0 2.0 0.00 0.01 0.01 84 1008.9
20260506182503 62 47 0.0 2.0 0.00 0.01 0.01 84 1008.9
20260506182003 62 47 0.0 2.0 0.00 0.01 0.01 84 1009.0
20260506181503 62 47 0.0 2.0 0.00 0.01 0.01 83 1008.7
20260506181003 62 47 0.0 2.0 0.00 0.01 0.01 83 1008.7
20260506180503 63 47 0.0 2.0 0.00 0.01 0.01 83 1008.6
20260506180004 63 47 0.0 2.0 0.00 0.01 0.01 83 1008.6
20260506175503 63 47 0.0 2.0 0.00 0.01 0.01 82 1008.5
20260506175003 63 47 0.0 2.0 0.00 0.01 0.01 82 1008.4
20260506174503 63 47 0.0 2.0 0.00 0.01 0.01 82 1008.4
20260506174003 64 47 0.0 2.0 0.00 0.01 0.01 82 1008.7
20260506173503 64 47 0.0 2.0 0.00 0.01 0.01 82 1008.8
20260506173003 64 47 0.0 2.0 0.00 0.01 0.01 82 1008.7
20260506172503 64 47 0.0 2.0 0.00 0.01 0.01 82 1008.8
20260506172003 64 47 0.0 2.0 0.00 0.01 0.01 82 1008.7
20260506171503 64 47 0.0 2.0 0.00 0.01 0.01 81 1008.5
20260506171003 64 47 0.0 2.0 0.00 0.01 0.01 81 1008.6
20260506170503 64 47 0.0 2.0 0.00 0.01 0.01 81 1008.3
20260506170003 64 47 0.0 2.0 0.00 0.01 0.01 81 1008.1
20260506165503 64 47 0.0 2.0 0.00 0.01 0.01 80 1008.5
20260506165003 64 47 0.0 2.0 0.00 0.01 0.01 80 1008.2
20260506164503 64 47 0.0 2.0 0.00 0.01 0.01 80 1008.4
20260506164003 64 47 0.0 2.0 0.00 0.01 0.01 80 1008.2
20260506163503 64 47 0.0 2.0 0.00 0.01 0.01 80 1008.4
20260506163003 64 47 0.0 2.0 0.00 0.01 0.01 80 1008.6
20260506162503 64 47 0.0 2.0 0.00 0.01 0.01 80 1008.5
20260506162003 64 47 0.0 2.0 0.00 0.01 0.01 79 1008.4
20260506161503 64 47 0.0 2.0 0.00 0.01 0.01 79 1008.6
20260506161003 65 47 0.0 2.0 0.00 0.01 0.01 78 1008.8
20260506160503 65 47 0.0 2.0 0.00 0.01 0.01 78 1008.7
20260506160003 65 75 1.0 8.0 0.00 0.01 0.01 77 1008.8
20260506155503 65 91 3.0 8.0 0.00 0.01 0.01 78 1008.4
20260506155003 65 102 4.0 9.0 0.00 0.01 0.01 77 1008.9
20260506154503 65 109 4.0 9.0 0.00 0.01 0.01 80 1008.6
20260506154003 65 109 4.0 7.0 0.00 0.01 0.01 81 1008.5
20260506153503 65 107 5.0 7.0 0.00 0.01 0.01 82 1008.8
20260506153003 65 106 5.0 6.0 0.00 0.01 0.01 82 1008.5
20260506152503 65 106 5.0 6.0 0.00 0.01 0.01 82 1008.6
20260506152003 65 106 5.0 6.0 0.00 0.01 0.01 82 1008.5
20260506151503 65 106 5.0 6.0 0.00 0.01 0.01 82 1008.6
20260506151003 64 104 5.0 8.0 0.00 0.01 0.01 82 1008.6
20260506150503 64 84 4.0 9.0 0.00 0.01 0.01 81 1008.5
20260506150003 64 55 4.0 9.0 0.00 0.01 0.01 81 1008.8
20260506145503 64 45 4.0 9.0 0.00 0.01 0.01 81 1008.8
20260506145003 64 46 4.0 7.0 0.00 0.01 0.01 82 1008.7
20260506144503 64 28 4.0 7.0 0.00 0.01 0.01 84 1008.7
20260506144003 64 3 5.0 5.0 0.00 0.01 0.01 84 1009.0
20260506143503 64 18 4.0 8.0 0.00 0.01 0.01 84 1009.0
20260506143003 64 37 4.0 8.0 0.00 0.01 0.01 84 1008.7
20260506142503 64 46 4.0 8.0 0.00 0.01 0.01 85 1009.0
20260506142003 64 42 4.0 9.0 0.00 0.01 0.01 85 1008.8
20260506141503 64 43 3.0 9.0 0.00 0.01 0.01 86 1008.9
20260506141003 63 52 3.0 6.0 0.00 0.01 0.01 86 1008.9
20260506140503 63 40 4.0 7.0 0.00 0.01 0.01 86 1008.9
20260506140003 63 37 4.0 7.0 0.00 0.01 0.01 87 1009.0
20260506135503 63 66 3.0 7.0 0.00 0.01 0.01 87 1009.0
20260506135003 63 82 3.0 7.0 0.00 0.01 0.01 87 1008.9
20260506134503 62 83 3.0 7.0 0.00 0.01 0.01 87 1009.1
20260506134003 62 83 3.0 7.0 0.00 0.01 0.01 87 1009.1
20260506133503 62 83 3.0 7.0 0.00 0.01 0.01 87 1009.2
20260506133003 62 83 3.0 7.0 0.00 0.01 0.01 87 1009.0
20260506132503 62 83 3.0 7.0 0.00 0.01 0.01 87 1009.1
20260506132003 62 83 3.0 7.0 0.00 0.01 0.01 87 1009.5
20260506131503 62 83 3.0 7.0 0.00 0.01 0.01 87 1009.1
20260506131003 62 83 3.0 7.0 0.00 0.01 0.01 87 1009.4
20260506130503 62 83 3.0 7.0 0.00 0.01 0.01 87 1009.3
20260506130003 62 83 3.0 7.0 0.00 0.01 0.01 86 1009.1
20260506125503 62 83 3.0 7.0 0.00 0.01 0.01 85 1009.2
20260506125003 62 83 3.0 7.0 0.00 0.01 0.01 84 1009.3
20260506124503 62 83 3.0 7.0 0.00 0.01 0.01 84 1009.4
20260506124003 62 83 3.0 7.0 0.00 0.01 0.01 83 1009.7
20260506123503 63 83 3.0 7.0 0.00 0.01 0.01 82 1009.7
20260506123003 63 83 3.0 7.0 0.00 0.01 0.01 81 1009.1
20260506122503 63 83 3.0 7.0 0.00 0.01 0.01 80 1009.4
20260506122003 64 83 3.0 7.0 0.00 0.01 0.01 80 1009.2
20260506121503 64 83 3.0 7.0 0.00 0.01 0.01 81 1009.4
20260506121003 64 83 3.0 7.0 0.00 0.01 0.01 81 1009.3
20260506120503 64 83 3.0 7.0 0.00 0.01 0.01 82 1009.1
20260506120003 64 83 3.0 7.0 0.00 0.01 0.01 82 1009.4
20260506115503 64 83 3.0 7.0 0.00 0.01 0.01 83 1009.4